Home > Weather > Koblenz > Past weeks

Flag for Germany Weather for the Past 2 Weeks in Koblenz, Rhineland-Palatinate, Germany

Now
34 °F

Chilly.


Feels Like: 27 °F
Forecast: 34 / 43 °F
Wind: 8 mph from East

Location: Buechel

Current Time: Feb 12, 2016 at 7:06:23 PM

Latest Report: Feb 12, 2016 at 6:20 PM


Visibility: N/A

Pressure: 29.36 "Hg

Humidity: 81%

Dew point: 28 °F

Location of KoblenzLocation

Historic Weather in Koblenz — Graph

°F

Koblenz Temperature Yesterday

Maximum temperature yesterday: 39 °F (at 1:20 PM)
Minimum temperature yesterday: 34 °F (at 1:20 AM)
Average temperature yesterday: 35 °F

High & Low Weather Summary for the Past Weeks

 TemperatureHumidityPressure
High50 °F (Feb 1, 1:20 AM)100% (Jan 29, 1:20 AM)30.33 "Hg (Jan 29, 1:20 AM)
Low30 °F (Feb 12, 6:20 AM)65% (Feb 3, 4:20 PM)28.94 "Hg (Feb 9, 5:20 PM)
Average39 °F91%29.83 "Hg
* Reported Jan 28 5:20 PM — Feb 12 5:20 PM, Koblenz, Weather by CustomWeather, © 2016

Note: Actual official high and low records may vary slightly from our data, if they occured in-between our weather recording intervals... More about our weather records

Advertising

Koblenz Weather History for the Previous 24 Hours

 ConditionsComfort  
Time TempWeatherWind HumidityBarometerVisibility
5:20 PM
Fri, Feb 12
34 °FChilly.9 mph81%29.36 "HgN/A
4:20 PM34 °FChilly.13 mph81%29.36 "HgN/A
3:20 PM34 °FChilly.10 mph75%29.39 "HgN/A
2:20 PM34 °FChilly.8 mph75%29.42 "HgN/A
1:20 PM34 °FChilly.9 mph81%29.45 "HgN/A
12:59 PM32 °FPartly sunny.10 mph87%29.45 "HgN/A
12:20 PM32 °FBroken clouds.9 mph93%29.47 "HgN/A
11:52 AM34 °FLight rain. Fog.9 mph81%29.50 "Hg2 mi
11:20 AM34 °FPartly sunny.7 mph81%29.50 "HgN/A
10:20 AM32 °FPartly sunny.5 mph87%29.53 "HgN/A
9:48 AM32 °FPartly sunny.6 mph87%29.53 "HgN/A
9:20 AM30 °FBroken clouds.6 mph93%29.56 "HgN/A
8:20 AM30 °FBroken clouds.7 mph93%29.56 "HgN/A
7:20 AM30 °FPassing clouds.10 mph93%29.59 "HgN/A
6:20 AM30 °FPartly cloudy.8 mph100%29.59 "HgN/A
5:20 AM32 °FPassing clouds.7 mph93%29.59 "HgN/A
4:20 AM32 °FChilly.8 mph93%29.62 "HgN/A
3:20 AM32 °FChilly.8 mph93%29.62 "HgN/A
2:20 AM32 °FChilly.9 mph93%29.65 "HgN/A
1:20 AM32 °FChilly.6 mph100%29.65 "HgN/A
12:20 AM34 °FChilly.8 mph93%29.65 "HgN/A
11:20 PM
Thu, Feb 11
34 °FChilly.7 mph93%29.65 "HgN/A
10:01 PM34 °FPassing clouds.8 mph93%29.65 "HgN/A
9:20 PM34 °FPassing clouds.7 mph100%29.68 "HgN/A
8:20 PM34 °FPassing clouds.8 mph100%29.65 "HgN/A
8:03 PM34 °FPassing clouds.6 mph100%29.65 "HgN/A
7:20 PM34 °FPartly cloudy.8 mph93%29.65 "HgN/A
Weather by CustomWeather, © 2016

See weather overviewHow to use our weather pages